Dewpoint
70 69 68 67 67 66 64 62 57 60 59 55 55 57 53 58 58 59 62 63 62 65 65 62 62 63 64 60 61 60 58 59 58 53 56 67 70 70 70 70 70 70 71 72 74 74 75 76 76 76 76 77 77 77 77 77 76 76 76 76 76 76 76 76 76 76 76 75 75 75 75 75 74 75 76 76 75 75 75 75 75 75 75 75 75 75 75 74 74 74 74 75 75 75 75 75 75
68 67 67 67 65 66 63 63 59 59 57 55 57 57 59 60 59 59 60 62 62 65 64 64 62 62 64 58 62 62 62 64 64 64 66 68 69 69 69 70 70 70 70 73 73 74 74 76 77 76 76 77 77 77 76 76 76 76 76 76 77 76 76 76 76 76 76 75 75 75 75 74 75 75 75 75 75 75 75 75 75 75 75 75 75 75 75 74 74 75 76 75 75 75 75 74 74
64 66 64 65 64 64 62 62 56 57 54 54 57 57 61 60 58 59 63 63 65 67 65 64 64 63 59 61 61 60 60 64 64 65 65 68 67 69 69 69 69 69 70 72 71 72 74 76 76 76 76 76 76 76 76 76 76 76 77 77 76 76 76 76 76 76 76 75 75 75 75 74 74 75 75 75 75 75 75 75 75 75 75 75 75 75 75 75 75 75 75 75 75 75 74 74 74
65 66 64 63 64 64 63 63 58 56 54 52 56 57 60 61 59 61 64 65 67 66 67 61 60 58 60 58 60 62 61 62 63 64 65 66 67 68 68 68 70 69 68 68 70 72 74 76 77 76 76 76 76 76 76 76 76 76 76 76 76 76 76 76 76 76 76 75 75 75 75 74 75 75 75 75 75 76 75 75 75 75 76 76 75 75 75 75 75 75 76 75 75 75 75 74 74
71 70 64 62 63 62 62 59 59 59 53 54 54 59 61 61 59 63 64 64 65 64 61 60 59 59 59 58 60 61 61 63 64 64 64 66 68 68 68 68 67 67 67 68 70 73 74 77 77 76 76 76 76 76 76 76 76 75 75 75 75 75 75 76 75 75 75 75 75 74 74 75 76 75 75 75 75 75 75 75 75 75 75 75 75 75 75 75 75 75 75 76 76 76 75 75 74
71 68 67 64 62 66 65 59 58 57 56 58 59 59 61 62 62 62 61 66 65 61 61 62 60 59 58 59 61 61 62 60 64 64 64 65 67 67 66 66 65 65 66 69 71 73 74 77 76 75 75 76 76 76 76 76 76 75 75 75 75 76 75 75 75 74 75 75 74 75 75 75 75 75 75 75 74 74 74 75 75 75 74 75 74 74 75 75 75 75 75 75 75 75 74 74 74
67 65 64 63 63 65 58 58 56 60 54 60 60 61 63 65 62 62 63 63 64 61 61 60 59 58 58 60 61 61 62 63 63 63 64 64 65 66 65 64 65 66 67 69 71 72 74 76 76 76 77 76 76 76 76 76 76 76 75 75 75 75 75 75 74 74 74 74 75 74 74 75 76 75 75 75 74 74 74 75 74 74 74 74 75 75 75 75 75 74 75 74 74 74 74 74 75
68 65 62 60 62 63 58 57 58 56 57 63 63 60 64 64 65 65 61 60 59 58 61 59 61 60 58 59 58 61 62 63 64 63 64 65 65 65 64 64 65 66 67 69 72 74 77 76 76 76 77 77 76 76 76 76 76 76 76 75 75 75 75 75 75 75 75 75 75 75 75 75 75 75 75 75 74 74 74 74 75 75 74 74 74 74 75 75 75 74 74 74 74 74 75 75 75
67 63 64 63 59 60 58 58 56 61 61 61 63 65 65 66 65 64 62 60 59 60 62 60 59 59 59 60 59 61 63 63 63 65 65 65 64 64 63 64 64 65 67 70 73 74 74 76 76 76 76 75 76 76 76 76 76 75 76 76 75 75 75 75 75 75 75 75 74 74 75 75 75 75 75 75 74 74 74 74 75 74 74 74 75 74 75 75 75 74 74 74 74 75 75 75 75
63 63 63 61 60 57 57 52 51 59 59 60 59 66 65 65 64 66 64 63 60 58 60 61 60 59 60 58 60 62 63 64 62 62 64 64 65 64 63 63 64 65 68 70 72 73 74 76 76 75 76 76 76 76 76 76 76 76 76 76 75 75 75 75 75 74 74 74 75 75 74 75 75 75 75 75 74 75 75 75 75 75 75 74 74 74 74 75 74 73 73 74 74 74 75 74 74
61 62 64 60 58 56 55 52 55 58 60 61 63 60 64 62 62 62 64 62 59 60 60 60 59 59 59 59 61 63 64 63 62 60 61 63 63 62 61 63 64 65 65 69 71 73 73 74 76 76 76 76 76 76 76 76 76 76 76 75 75 76 75 74 75 75 75 75 75 75 75 75 75 75 75 74 75 74 75 75 75 75 75 74 74 74 74 74 74 74 74 74 74 73 73 73 74
62 62 63 57 58 58 57 54 53 59 59 62 59 63 63 62 64 62 62 60 58 59 60 61 60 59 57 59 62 63 63 62 62 61 62 63 61 59 60 63 64 64 65 68 71 72 73 74 74 76 76 76 76 76 76 76 76 76 75 75 75 74 74 75 75 76 75 75 75 76 75 75 75 75 75 74 75 75 74 74 74 74 74 74 74 74 74 74 74 74 73 73 73 73 73 73 74
61 64 64 58 58 58 61 56 55 57 60 62 62 64 66 59 61 61 61 59 58 58 60 63 61 60 57 59 63 62 63 63 61 61 62 61 59 59 58 62 62 63 66 69 70 72 73 73 73 75 75 76 76 76 76 76 76 76 76 75 75 75 75 75 75 74 74 74 75 75 75 75 75 74 74 75 75 74 74 74 74 74 74 74 74 74 74 74 74 74 73 73 73 73 73 73 74
62 64 65 57 62 60 58 55 55 55 59 59 63 59 66 59 59 62 59 60 59 61 61 61 62 59 58 60 63 63 63 62 61 60 61 60 58 58 58 60 61 64 65 68 70 71 72 72 73 74 75 76 75 75 76 76 76 76 76 75 75 74 74 75 75 75 74 74 74 74 74 74 75 75 75 75 75 75 74 73 74 74 74 74 74 74 75 74 74 74 73 73 73 73 73 73 74
59 63 62 60 57 56 55 53 55 55 55 58 59 64 66 58 59 59 61 60 62 62 62 62 61 58 56 58 60 61 63 61 61 61 60 59 58 57 58 58 60 62 64 67 69 70 70 71 73 75 75 74 75 75 75 75 76 76 75 75 75 75 75 75 74 74 74 74 74 74 75 75 75 75 75 76 75 75 75 73 74 74 74 74 74 74 74 74 74 73 73 73 73 73 73 74 74
59 60 60 58 55 54 52 51 56 60 56 57 56 63 64 59 60 58 59 63 60 61 62 60 62 60 57 57 60 62 63 61 60 60 60 59 58 57 58 58 59 60 64 65 67 68 69 71 73 73 74 73 74 74 75 75 76 76 75 75 75 75 75 74 75 75 75 74 75 76 76 75 74 74 75 74 75 75 74 74 74 74 74 73 73 74 74 74 73 73 73 73 73 74 74 74 74
58 62 59 57 55 53 55 53 53 54 57 57 63 66 60 57 61 58 61 61 59 60 61 61 61 60 57 56 60 64 63 62 62 60 59 60 59 57 59 59 59 60 61 63 65 67 68 71 72 73 73 73 72 73 75 75 75 76 75 76 75 75 75 75 75 74 74 75 76 76 75 74 76 75 74 73 75 74 74 74 74 74 74 73 73 74 74 74 73 73 73 74 74 74 74 75 75
57 61 59 56 54 51 52 56 55 54 58 57 62 64 60 56 60 59 60 60 60 60 58 60 61 62 58 59 61 63 63 61 61 59 59 58 59 57 57 58 58 58 59 61 64 66 68 70 72 72 72 74 73 73 74 75 75 75 75 75 75 75 75 75 75 75 75 76 75 76 76 75 75 75 75 75 75 75 74 75 74 74 74 73 74 74 73 74 74 74 74 74 74 74 75 74 75
53 55 59 54 55 54 55 57 57 56 58 56 57 61 58 57 59 59 65 59 58 62 60 59 60 59 59 61 61 62 62 62 61 60 59 57 57 57 58 59 60 57 57 60 62 65 68 70 71 72 72 74 74 73 73 74 75 75 75 75 74 75 75 76 75 75 74 75 76 75 76 75 74 76 76 75 75 74 74 75 75 75 74 74 74 74 74 73 73 74 74 74 74 75 76 76 75
53 50 55 57 56 56 55 55 61 59 61 58 58 60 58 52 54 64 62 61 61 61 57 59 59 57 57 59 61 62 62 62 62 60 59 58 57 58 57 57 59 59 57 58 61 64 67 69 71 72 73 73 73 73 73 73 74 74 73 74 74 74 75 75 75 75 75 76 75 76 75 75 75 76 74 75 75 74 74 74 75 74 74 74 75 74 74 74 74 74 75 75 75 75 74 73 71
52 49 47 56 56 54 55 62 62 64 63 60 63 55 54 51 57 58 64 62 62 60 58 59 58 56 56 56 59 60 61 60 60 61 59 59 59 58 57 58 58 59 59 59 62 63 66 68 70 72 73 73 72 72 72 72 73 72 72 72 73 73 75 75 74 75 75 76 76 76 74 74 74 75 75 75 74 75 74 74 74 74 74 74 74 75 74 74 74 74 74 75 75 75 73 73 74
50 47 48 55 57 51 55 56 56 61 61 63 66 51 55 55 56 58 57 58 58 61 60 58 58 56 56 56 58 57 61 60 61 62 61 60 59 59 58 59 58 58 60 60 61 62 64 67 69 71 71 72 72 72 72 73 74 71 71 71 72 73 73 74 75 75 75 76 75 73 73 73 75 75 75 75 75 75 74 74 74 75 75 74 75 75 74 75 75 74 74 74 73 75 74 75 71
48 47 46 49 54 52 54 55 54 56 54 59 55 55 56 53 57 55 53 57 58 60 63 57 58 56 57 56 57 57 57 58 59 60 61 61 60 60 58 58 58 59 60 62 63 62 63 65 69 70 70 73 73 73 74 75 73 71 70 71 71 72 73 74 75 74 74 75 73 74 73 74 75 74 73 73 74 75 74 75 75 75 75 74 75 74 74 75 74 74 75 74 74 72 72 75 76
45 46 48 48 54 50 54 54 57 56 53 53 52 53 63 58 58 56 55 56 58 62 59 58 57 57 57 57 55 55 57 56 57 59 62 61 60 59 58 57 58 59 62 63 64 62 63 63 69 69 72 72 72 72 73 73 74 71 66 71 70 71 73 72 72 73 75 75 74 74 74 75 76 75 73 75 74 74 74 74 74 74 74 75 75 76 73 74 75 77 75 74 75 76 70 73 73
42 42 44 45 56 55 53 52 56 54 51 52 51 49 59 52 60 55 54 56 58 59 57 58 57 56 56 57 57 55 57 55 56 59 61 61 60 59 58 57 58 58 60 62 64 64 62 63 66 68 71 72 72 70 71 73 73 71 67 66 68 72 70 70 70 72 74 76 74 75 76 74 76 75 74 74 74 74 75 74 74 73 74 74 74 74 75 74 75 74 77 75 76 75 75 74 74
40 40 41 43 44 46 49 54 53 53 52 51 50 49 55 52 55 56 56 59 57 59 56 57 58 56 56 57 57 56 57 55 57 56 57 60 59 58 57 57 58 57 59 61 63 64 63 62 63 65 68 71 71 70 72 72 72 68 68 70 70 72 69 69 73 71 72 72 73 74 75 76 75 75 74 74 74 74 74 74 74 74 75 76 74 74 75 76 76 74 75 75 75 76 76 75 75
36 38 39 39 40 43 45 45 49 52 51 52 49 49 52 51 54 53 54 55 57 56 56 57 57 57 56 56 56 57 56 56 57 56 57 59 59 59 58 57 58 57 60 59 61 63 65 62 61 65 67 72 71 71 72 72 70 68 69 69 68 71 72 73 73 70 74 74 72 74 75 75 75 76 74 74 74 74 75 75 75 75 75 74 75 75 76 75 75 76 76 76 76 77 75 74 77
29 32 36 40 40 39 39 43 47 50 50 50 50 49 50 51 50 54 57 57 58 57 56 56 57 57 57 56 57 57 57 56 57 57 57 58 58 59 58 58 58 57 59 58 60 63 62 62 60 63 66 69 71 69 71 70 70 69 71 70 67 71 75 72 71 71 74 74 73 72 75 75 75 75 75 74 74 75 75 75 76 74 74 75 76 75 75 75 76 76 75 76 76 76 76 75 77
27 27 29 34 37 36 40 40 41 48 48 50 50 48 47 48 47 57 54 55 57 55 56 56 57 57 57 57 57 58 58 57 57 56 56 57 58 59 59 58 58 58 59 57 59 60 61 61 61 63 65 69 69 67 69 70 70 66 70 70 68 68 71 72 70 73 74 73 74 72 74 74 75 75 76 75 76 75 75 75 75 75 76 76 76 75 74 75 76 77 75 76 76 74 74 74 74
26 25 29 34 35 34 34 38 40 41 46 49 50 45 45 46 47 50 53 53 58 56 57 56 57 57 57 57 57 58 57 58 57 57 57 57 57 58 58 58 60 58 60 59 58 58 60 61 62 62 63 65 68 67 71 70 70 70 71 70 71 72 68 71 71 72 75 75 73 73 74 74 74 76 75 74 74 75 74 75 74 74 76 75 75 75 75 76 75 75 75 76 75 75 73 73 74
24 26 28 30 30 30 32 35 37 37 41 46 49 44 45 46 46 54 54 52 58 55 55 56 57 57 57 57 57 57 57 59 57 57 55 56 57 58 59 59 60 59 61 59 58 57 60 61 63 62 64 65 66 69 69 70 69 67 70 70 69 71 69 68 67 69 72 73 73 73 74 73 74 74 74 74 74 75 74 75 75 75 76 76 76 75 75 75 74 75 76 75 74 74 73 74 69
24 22 23 25 27 29 30 32 34 34 36 42 47 44 45 46 46 48 55 53 52 55 55 60 57 57 57 57 57 57 57 57 57 57 56 57 57 57 58 58 59 59 59 59 58 57 58 61 65 63 64 65 67 70 71 72 70 71 71 70 70 71 68 66 67 69 70 72 74 72 73 74 75 74 73 74 74 74 75 74 75 75 74 75 76 75 75 74 75 75 74 74 74 70 72 71 74
21 21 20 22 26 26 26 26 29 32 33 40 44 43 44 45 45 52 51 54 52 56 55 58 56 56 57 57 58 57 57 57 57 57 58 57 58 58 59 59 60 60 59 59 58 57 59 62 65 63 63 64 67 69 72 73 73 71 71 68 64 70 65 66 70 72 70 71 77 75 77 75 74 74 74 74 76 75 76 74 76 75 75 75 75 74 73 74 74 73 76 75 72 71 69 67 70
18 19 18 18 20 23 23 23 24 29 32 37 42 42 44 47 46 49 53 53 52 52 55 55 57 57 57 57 57 57 57 57 57 58 57 57 56 58 58 62 60 60 61 59 56 57 57 64 63 65 65 63 69 69 73 70 72 73 72 70 73 69 69 67 67 69 69 72 76 76 77 79 75 74 75 75 75 76 74 74 73 74 75 74 74 73 73 73 74 74 74 73 70 70 68 64 65
16 15 16 16 19 21 21 20 21 26 32 32 41 42 42 45 45 49 49 52 53 54 56 57 55 57 59 57 57 57 57 57 57 58 57 58 58 58 57 58 59 61 60 59 57 62 62 64 66 70 66 65 66 70 74 72 73 74 69 70 70 72 74 72 69 70 68 71 71 75 77 76 77 77 76 76 77 76 76 76 75 74 75 74 75 75 73 74 72 71 70 78 76 73 75 66 67
13 11 11 15 16 19 20 21 22 25 31 32 36 41 41 44 44 48 52 53 50 57 54 55 59 57 59 58 57 57 58 57 58 58 58 58 58 58 58 59 59 60 60 62 61 61 63 66 67 70 70 65 68 71 73 71 71 71 69 68 70 70 73 73 74 69 69 72 73 73 76 77 78 78 78 76 75 76 76 77 76 76 78 76 76 75 76 76 76 74 73 68 74 71 70 71 69
12 8 6 6 11 15 20 21 21 29 32 34 35 39 42 46 44 45 50 50 53 51 56 58 58 58 55 56 57 58 59 57 58 58 58 59 59 59 59 59 60 60 63 64 60 61 63 65 68 69 69 69 70 72 72 70 70 71 71 67 68 68 72 72 70 70 68 67 74 74 76 77 78 78 78 78 76 76 76 77 78 76 77 77 77 75 74 75 77 77 76 77 70 71 69 67 68
16 10 6 2 4 10 17 20 21 22 29 32 35 36 40 48 44 45 49 49 50 51 56 58 62 62 55 56 57 58 59 58 58 58 58 58 59 59 58 60 62 61 64 64 61 64 64 66 66 68 69 71 70 72 73 71 72 70 70 68 69 65 70 70 69 71 65 66 75 76 77 75 77 78 78 77 79 77 78 77 77 78 78 77 76 75 76 77 76 75 72 77 72 74 76 64 65
19 13 9 6 11 11 12 17 20 20 22 28 30 33 36 41 46 46 48 50 50 51 53 55 60 60 61 56 57 59 58 57 57 57 58 58 58 58 59 60 60 60 61 61 63 64 66 66 68 70 69 70 71 72 73 72 72 72 69 68 67 66 68 68 65 66 67 65 70 74 76 78 77 77 77 78 78 77 78 78 78 81 79 77 79 77 77 78 76 72 73 74 75 73 70 70 69
16 14 11 7 11 12 10 12 17 19 24 27 32 31 34 37 44 47 47 47 51 53 57 56 58 61 60 57 57 62 57 59 58 58 57 57 58 59 59 60 61 60 63 62 62 64 65 68 69 71 70 70 71 73 73 72 73 74 73 72 69 69 66 69 72 70 68 67 69 70 75 78 76 75 74 75 76 76 77 76 77 79 80 77 78 79 78 76 77 77 74 75 71 69 67 65 68
15 13 11 7 7 11 11 10 14 18 20 28 29 29 32 36 36 44 52 52 51 47 48 57 59 60 59 64 63 62 58 59 58 57 58 57 58 58 60 61 60 61 62 62 62 62 60 69 69 71 71 70 72 74 74 74 74 74 73 74 71 74 70 68 68 68 67 70 69 70 70 74 76 75 74 75 75 77 77 78 78 78 79 80 79 78 78 75 77 75 74 77 74 74 63 67 68
15 12 10 9 8 9 10 12 12 15 17 19 23 28 29 33 33 36 41 43 43 46 49 59 58 59 61 60 60 58 58 60 60 58 58 57 57 59 61 62 60 61 63 63 62 62 63 69 70 72 72 71 72 74 75 74 74 74 73 73 70 71 73 68 68 68 63 63 61 66 68 71 74 75 76 75 73 75 77 77 78 79 79 79 79 76 78 78 76 75 75 74 73 71 74 67 69
13 11 10 8 10 10 8 8 12 17 19 18 25 26 26 29 28 31 37 45 44 46 50 55 55 57 59 58 56 58 56 59 60 58 58 57 59 59 60 61 60 60 62 63 63 65 66 70 71 72 73 72 73 74 74 75 74 74 73 71 69 69 72 70 72 67 67 67 67 68 71 73 75 73 73 75 74 76 77 78 78 77 77 78 78 79 78 75 74 73 75 75 76 75 75 71 67
13 15 11 9 8 8 8 10 9 12 17 17 22 25 26 27 27 29 32 37 44 46 46 51 59 59 56 57 56 57 56 59 59 60 59 58 59 59 59 60 60 60 62 63 63 65 68 71 72 72 73 72 73 74 75 75 74 74 74 72 71 69 67 72 72 73 73 74 69 67 68 72 75 75 74 77 76 76 77 78 78 78 76 75 77 78 77 77 77 77 77 77 77 80 77 78 71
15 16 13 9 8 6 5 8 9 8 9 14 14 23 28 29 30 28 28 32 37 39 41 44 59 57 59 57 54 56 55 55 59 60 60 60 60 58 60 61 60 61 62 63 65 67 70 72 73 73 73 73 73 75 75 75 75 75 74 72 72 71 71 72 72 72 74 75 73 75 73 72 76 77 77 76 77 77 78 78 78 78 77 76 77 76 76 76 77 77 78 77 77 78 75 78 77
18 17 15 11 8 8 8 7 8 9 13 17 19 21 26 28 27 25 29 29 31 37 40 42 47 59 57 58 55 53 55 58 59 60 62 62 60 59 60 61 62 61 62 66 65 66 69 72 74 73 74 73 73 75 75 75 75 75 74 73 73 72 72 72 71 71 74 75 74 75 77 76 75 78 77 78 78 77 77 78 76 75 76 72 75 73 75 77 78 78 77 77 76 76 78 77 72
17 17 17 12 6 12 13 11 12 10 10 16 17 19 21 21 25 24 23 26 30 33 38 41 46 50 55 55 55 53 53 54 57 59 60 62 61 61 61 61 64 64 65 65 66 67 68 70 73 74 74 73 74 75 75 74 74 75 74 74 73 72 72 72 72 73 72 74 72 73 76 77 76 77 74 78 78 76 77 77 73 74 75 76 77 79 75 75 75 76 77 77 77 76 76 76 74
17 17 15 12 13 16 20 18 17 10 8 11 13 20 23 22 25 26 25 23 27 31 32 38 42 53 54 58 54 54 54 55 58 59 60 62 65 65 65 65 65 66 65 65 65 66 69 71 73 74 75 74 73 74 74 73 73 74 74 73 73 73 72 70 72 73 71 71 71 74 76 77 76 77 77 75 74 73 77 77 77 76 76 77 76 82 78 74 73 75 77 78 77 78 78 76 76
19 17 16 11 14 16 16 19 15 14 9 10 6 11 16 21 26 23 24 22 23 28 30 35 39 51 55 56 53 54 55 55 56 60 61 64 66 66 65 66 67 67 67 67 65 65 68 72 73 74 74 74 74 74 74 74 74 73 73 73 73 73 73 72 72 73 73 72 71 72 75 76 76 76 76 73 73 73 77 78 77 77 77 77 77 78 79 76 77 78 77 77 77 77 78 77 76
16 15 15 14 12 14 17 17 17 15 12 7 5 7 8 14 16 21 17 28 28 27 32 35 40 41 58 54 53 50 53 55 57 59 61 63 65 64 66 66 67 67 66 66 66 67 69 70 73 74 74 74 74 75 74 74 73 74 74 73 73 73 73 72 72 71 73 73 73 72 71 71 75 74 73 74 72 72 73 76 77 77 79 79 79 78 78 79 78 78 77 77 75 77 78 77 77
12 11 10 14 16 11 17 17 16 14 14 9 5 4 11 4 12 7 14 21 27 27 26 37 41 42 50 52 54 55 53 58 60 62 60 61 63 65 64 65 66 67 65 64 65 68 70 71 73 74 75 74 75 75 75 74 73 74 74 73 73 73 73 72 72 71 73 74 72 72 73 70 72 73 74 75 75 75 74 76 77 77 77 78 78 78 77 79 79 78 80 76 76 77 78 77 77
12 12 12 12 14 16 13 17 16 15 13 9 12 8 8 9 17 11 17 21 27 26 26 33 40 51 53 52 53 51 57 58 59 59 62 64 64 65 64 65 66 66 67 65 66 69 69 71 74 74 74 74 74 75 75 75 74 74 74 73 73 74 74 73 73 73 74 74 74 74 74 73 72 74 75 76 74 75 74 76 77 76 77 76 78 78 78 77 79 78 78 77 77 73 76 77 77
14 15 14 12 14 14 18 19 16 18 18 17 15 10 7 8 6 8 11 17 25 27 26 25 33 54 55 53 52 51 49 56 57 59 61 63 63 65 65 67 64 65 65 65 68 69 70 72 73 74 75 74 74 75 75 75 74 74 74 73 73 74 73 72 70 72 68 72 74 74 73 71 71 74 74 74 74 76 76 76 75 74 77 77 77 78 77 78 79 78 76 78 76 73 77 77 77
17 13 17 17 16 15 19 15 21 18 17 19 12 10 11 8 10 11 11 11 15 24 27 26 31 39 46 48 53 53 51 59 60 60 61 64 64 64 64 64 63 65 65 66 70 69 71 72 73 74 74 75 74 74 74 74 74 74 74 74 74 74 72 70 70 70 69 71 73 74 72 72 69 68 72 70 74 74 76 76 76 76 75 75 76 75 77 77 78 77 77 78 77 78 78 77 77
19 18 19 18 18 18 21 21 17 17 16 19 20 14 12 12 17 10 12 12 13 21 27 28 26 32 54 54 51 52 51 51 57 57 60 61 62 64 64 63 64 65 69 68 69 68 69 70 72 73 74 73 73 72 74 75 74 72 73 73 74 74 73 72 71 72 71 71 69 71 71 72 69 70 73 76 74 74 75 76 77 75 76 76 76 76 77 77 78 77 76 76 77 78 78 78 78
21 21 19 20 19 20 20 20 23 23 19 18 18 15 15 14 16 14 13 18 20 18 22 24 29 34 46 49 51 52 52 55 58 57 57 58 58 59 61 62 61 63 67 67 66 66 66 68 71 73 73 74 74 74 75 74 74 73 73 74 75 74 75 73 73 73 71 70 70 70 71 69 70 68 69 75 73 73 74 73 73 73 72 73 74 74 75 77 77 77 76 74 75 77 77 77 75
20 20 19 19 19 19 17 18 18 19 21 21 22 17 21 21 17 18 21 20 22 20 24 32 33 36 36 45 51 52 52 52 53 56 56 57 58 60 63 62 61 62 65 67 66 66 67 67 70 72 73 73 73 73 73 74 74 74 75 75 73 74 74 73 72 73 72 71 71 71 70 69 71 69 69 70 72 73 74 74 72 73 72 74 75 75 75 76 77 77 78 77 77 76 76 76 77
18 17 16 18 18 18 19 18 16 15 18 23 21 20 26 17 17 16 22 23 20 22 24 27 30 32 39 40 42 48 50 53 57 58 58 56 56 60 60 63 62 62 64 68 66 66 67 67 69 71 72 72 72 72 73 74 74 73 74 73 74 73 73 73 71 72 72 72 71 72 72 71 70 71 70 68 72 71 73 73 72 74 74 74 76 77 74 75 76 76 76 73 75 78 76 77 77